SCP
0 0 -0 0 0 -0 -0 -0 0 0 -0 0 0 0 0 0 0 0 0 0 0 0 -0 -0 -0 -0 0 0 0 -0 0 0 0 0 0 0 0 0
0 0 0 0 0 0 -0 -0 -0 -0 -0 0 0 0 0 0 0 0 0 -0 -0 -0 -0 -0 -0 -0 -0 -0 -0 -0 0 0 -0 0 0 0 0 0
0 0 -0 0 0 0 0 0 0 0 -0 -0 0 0 0 0 0 0 0 0 0 -0 -0 -0 -0 -0 -0 -0 -0 -0 -0 -0 0 0 0 0 0 0
0 0 0 0 0 0 0 0 0 0 0 -0 0 0 0 0 0 0 0 0 0 0 0 -0 -0 -0 -0 -0 -0 -0 -0 -0 -0 -0 -0 -0 0 0
0 0 0 0 0 0 0 0 0 0 0 0 0 0 0 0 0 0 0 0 0 0 0 -0 -0 -0 -0 -0 -0 -0 -0 -0 -0 -0 -0 -0 0 0
0 0 0 0 0 0 0 0 0 0 0 0 0 0 0 0 0 0 0 0 0 0 0 0 0 -0 -0 -0 -0 -0 -0 -0 -0 -0 -0 0 0 0
0 0 0 0 0 0 0 0 0 0 0 0 0 0 0 0 0 0 0 0 0 0 0 0 0 0 0 0 0 -0 -0 -0 -0 -0 0 0 0 0
0 0 0 0 0 0 0 0 0 0 0 0 0 0 0 0 0 0 0 0 0 0 0 0 0 0 0 0 0 0 0 0 0 0 0 0 0 0
0 0 1 0 0 0 0 0 0 0 0 0 0 0 0 0 0 0 0 0 0 0 0 0 0 0 0 0 0 0 0 0 0 0 0 0 0 0
0 0 0 0 0 0 0 0 0 0 0 0 0 0 0 0 0 0 0 0 0 0 0 0 0 0 0 0 0 0 0 0 0 0 0 0 0 0
0 0 0 0 0 0 0 0 0 0 0 0 0 0 0 0 0 0 0 0 0 0 0 0 0 0 0 0 0 0 0 0 0 0 0 0 0 0
0 0 0 0 0 0 0 0 0 0 0 0 0 0 0 0 0 0 0 0 0 0 0 0 0 0 0 0 0 0 0 0 0 0 0 0 0 0
0 0 0 0 0 0 0 0 0 0 0 0 0 0 0 0 0 0 0 0 0 0 0 0 0 0 0 0 0 0 0 0 0 0 0 0 0 0
0 0 0 0 0 0 0 0 0 0 0 0 0 0 0 0 0 0 0 0 0 0 0 0 0 0 0 0 0 0 0 0 0 0 0 0 0 0
0 0 0 0 0 0 0 0 0 0 0 0 0 0 0 0 0 0 0 0 0 0 0 0 0 0 0 0 0 0 0 0 0 0 0 0 0 0
0 0 0 0 0 0 0 0 0 0 0 0 0 0 0 0 0 0 0 0 0 0 0 0 0 0 0 0 0 0 0 0 0 0 0 0 0 0
0 0 0 0 0 0 0 0 0 0 0 0 0 0 0 0 0 0 0 0 0 0 0 0 0 0 0 0 0 0 0 0 0 0 0 0 0 0
0 0 0 0 0 0 0 0 0 0 0 0 0 0 0 0 0 0 0 0 0 0 0 0 0 0 0 0 0 0 0 0 0 0 0 0 0 0
0 0 0 0 0 0 0 0 0 0 0 0 0 0 0 0 0 0 0 0 0 0 0 0 0 0 0 0 0 0 0 0 0 0 0 0 0 0
0 0 0 0 0 0 0 0 0 0 0 0 0 0 0 0 0 0 0 0 0 0 0 0 0 0 0 0 0 0 0 0 0 0 0 0 0 -0
0 0 0 0 0 0 0 0 0 0 0 0 0 0 0 0 0 0 0 0 0 0 0 0 0 0 0 -0 0 0 0 0 0 0 0 0 0 0
0 0 0 0 0 0 0 0 0 0 0 0 0 0 0 0 0 0 0 0 0 0 0 0 0 0 0 0 0 0 0 0 0 -0 -0 -0 0 0
0 0 0 0 0 0 0 0 0 0 0 0 0 0 0 0 0 0 0 0 0 0 0 0 0 0 0 0 0 0 0 0 0 0 0 -0 -0 -0
Wind_Speed_500mb
22 22 21 18 15 16 17 17 15 16 16 11 11 20 20 16 17 18 19 21 22 26 31 38 42 35 32 27 26 15 21 20 20 28 32 25 20 19
22 24 24 24 24 24 23 22 20 17 18 19 17 22 20 16 19 19 21 25 30 33 36 38 33 28 25 26 24 18 16 14 18 23 32 28 22 17
29 26 25 26 25 26 27 25 23 24 22 22 26 24 20 18 20 22 25 27 27 30 30 29 27 24 19 21 25 27 20 11 19 17 26 29 26 21
30 30 28 27 28 29 29 30 26 27 24 25 22 15 16 20 19 19 19 21 19 22 23 25 24 25 24 23 23 21 20 16 17 19 22 21 20 19
31 32 32 30 26 25 27 28 26 26 25 22 20 21 24 19 18 18 20 17 12 15 17 15 19 23 26 27 26 24 23 21 18 20 22 22 20 17
32 31 30 35 30 26 23 23 23 24 26 24 20 22 22 20 20 15 12 14 10 11 16 19 16 17 20 22 24 27 25 22 20 20 20 22 23 23
32 30 30 31 32 30 29 27 28 26 26 25 25 21 17 14 15 19 11 9 9 14 13 15 11 15 17 20 24 27 27 25 23 22 22 23 23 23
35 32 32 31 32 35 35 31 29 29 29 31 28 26 25 24 24 19 11 4 1 10 13 13 9 14 16 20 22 23 26 27 25 24 23 23 23 24
30 29 28 31 28 29 32 29 34 34 33 29 31 31 27 26 24 15 11 8 4 8 12 4 5 13 13 15 16 18 23 27 26 24 24 24 23 22
28 28 27 34 35 28 30 28 33 32 30 30 30 31 27 25 16 12 10 12 14 14 17 6 11 4 20 23 24 23 25 31 29 27 26 26 27 27
33 32 32 31 35 32 27 29 31 38 35 32 27 23 19 13 11 9 8 5 10 18 27 20 17 11 11 26 31 30 35 32 27 25 25 23 24 29
38 36 37 43 40 38 33 34 33 30 25 17 12 11 10 10 10 10 11 6 12 14 22 19 17 11 3 14 22 33 36 31 32 31 30 30 29 31
34 34 36 38 36 30 25 24 21 18 17 14 12 11 10 11 12 15 19 23 23 22 22 16 14 16 12 16 19 30 30 35 34 33 32 35 39 39
27 28 28 30 28 27 25 22 15 12 13 13 14 12 15 19 24 27 27 24 22 20 17 17 17 18 19 18 15 30 31 33 34 34 37 39 40 38
24 26 30 28 26 27 27 22 16 13 12 17 18 20 24 32 29 27 26 23 19 20 21 21 20 21 20 18 19 26 34 32 37 44 44 39 37 36
15 19 16 14 11 15 15 10 10 11 16 23 23 23 22 22 23 21 17 17 17 20 21 22 21 20 17 17 18 20 26 26 32 35 37 33 30 30
5 6 14 16 15 18 18 19 18 21 20 22 22 21 22 20 16 15 13 11 11 14 15 16 16 15 13 12 10 20 25 26 31 34 30 28 26 27
4 8 8 5 3 5 8 12 16 20 21 23 23 20 16 13 11 10 10 12 13 14 18 20 17 13 13 23 17 24 31 29 29 30 28 29 26 26
8 7 8 8 8 10 16 17 21 23 18 15 12 10 9 8 8 7 9 12 15 20 21 23 23 19 13 10 15 27 29 24 25 24 25 26 26 30
15 13 11 11 9 15 15 19 18 17 12 11 9 7 6 7 8 11 13 13 14 14 12 16 18 17 14 14 14 19 31 24 25 24 26 26 26 30
20 20 20 20 18 16 14 15 17 15 11 10 9 6 8 8 11 12 13 15 13 8 6 11 17 18 16 14 11 13 19 32 28 24 24 25 26 21
19 20 23 20 19 19 20 19 22 22 19 20 17 15 11 12 14 16 14 10 8 6 6 5 12 11 13 14 16 18 18 21 25 34 33 34 28 23
17 21 21 21 22 22 22 23 23 23 21 19 17 15 15 16 18 17 14 11 5 2 4 6 7 9 12 14 17 17 23 23 24 25 21 37 43 45
Wind_Direction_500mb
273 279 281 285 285 287 301 316 324 317 322 323 342 342 352 356 358 3 360 353 346 340 338 336 334 335 343 358 0 16 6 354 3 5 7 5 2 4
267 269 271 274 273 274 278 284 289 294 299 303 310 315 320 329 321 329 335 334 326 325 327 332 339 346 352 359 7 3 351 348 356 1 9 5 2 359
259 267 266 267 270 270 275 278 284 292 290 297 307 310 314 318 309 313 322 330 329 325 330 330 336 338 337 343 0 3 358 331 347 342 351 351 354 352
260 266 263 263 265 266 268 272 275 283 292 299 301 318 328 322 322 330 338 340 337 335 331 326 325 326 329 330 333 341 350 339 324 306 311 325 331 337
258 268 265 261 265 264 269 269 273 282 292 297 302 316 326 326 333 345 347 352 26 9 2 349 334 327 327 331 334 333 335 329 330 321 314 316 318 312
259 261 261 252 256 265 261 266 268 268 283 288 291 303 313 316 325 341 4 358 8 36 22 359 358 348 345 345 350 355 355 352 347 339 330 321 313 315
256 257 262 259 258 265 276 268 273 274 276 277 283 291 294 299 309 329 350 359 14 28 50 46 40 8 12 14 18 12 7 6 2 355 348 344 340 336
258 260 265 264 262 261 261 273 273 277 289 280 281 291 295 298 312 320 329 0 273 25 65 30 32 351 359 10 18 6 5 4 5 360 356 351 349 345
257 263 269 271 269 269 263 261 275 274 275 278 284 283 288 296 302 306 306 330 347 3 31 9 29 304 303 315 314 328 344 347 342 338 335 333 331 332
249 264 273 269 274 281 261 262 273 273 275 277 279 282 288 290 284 275 279 297 306 326 336 338 322 307 296 289 295 312 322 331 327 326 321 315 315 316
268 273 269 276 275 269 267 266 271 275 278 278 279 284 286 277 266 253 261 284 292 299 318 315 310 303 260 286 299 310 323 324 325 326 325 323 320 315
270 268 264 261 263 259 258 264 263 268 272 271 271 269 266 267 267 263 272 292 301 303 310 322 316 334 280 282 298 306 319 326 329 330 329 326 323 321
263 264 260 257 254 251 241 237 244 252 251 246 239 242 249 264 276 289 299 305 307 299 307 318 317 324 310 288 298 311 316 322 325 326 328 330 330 326
247 247 241 241 235 225 215 204 199 217 228 233 244 262 283 292 297 302 305 306 305 303 307 315 315 315 312 312 312 307 321 323 327 330 333 332 331 329
247 247 243 227 230 232 219 196 172 199 233 254 264 279 286 299 300 306 310 310 304 311 317 318 318 317 315 309 314 318 327 332 332 334 338 339 338 340
249 254 243 213 204 205 159 154 215 230 256 264 272 277 287 289 296 298 298 304 303 309 309 312 317 319 315 304 306 315 325 331 321 322 327 332 334 339
293 260 214 216 209 209 222 221 241 242 244 258 271 283 286 287 287 289 294 296 292 299 306 313 319 318 309 307 325 330 333 335 330 332 337 341 345 341
207 195 175 179 250 243 231 235 238 252 261 267 270 275 277 277 275 284 302 314 314 319 325 332 345 348 333 323 311 326 331 338 340 346 350 346 342 345
204 201 233 240 227 242 254 255 265 267 259 257 255 247 249 265 288 297 316 324 328 334 331 328 333 341 359 337 324 339 355 350 348 342 345 342 342 338
234 224 228 237 232 259 268 282 279 271 271 266 254 254 255 276 298 317 321 319 324 330 338 337 340 342 347 336 344 343 339 358 358 350 349 355 347 357
228 222 218 221 226 234 251 275 271 263 251 234 242 256 278 293 300 300 304 307 316 329 350 340 340 354 7 4 350 340 341 336 352 3 352 351 351 350
221 217 216 218 233 244 252 240 237 229 222 228 225 224 237 276 289 290 292 295 293 291 323 347 358 16 14 1 349 343 343 346 355 350 352 357 351 329
213 216 225 240 250 257 252 238 225 221 221 231 251 260 263 263 266 270 277 278 265 310 14 6 23 48 16 359 353 348 355 359 349 344 342 332 338 347
Wind_Speed_850mb
22 22 21 18 15 16 17 17 15 16 16 11 11 20 20 16 17 18 19 21 22 26 31 38 42 35 32 27 26 15 21 20 20 28 32 25 20 19
22 24 24 24 24 24 23 22 20 17 18 19 17 22 20 16 19 19 21 25 30 33 36 38 33 28 25 26 24 18 16 14 18 23 32 28 22 17
29 26 25 26 25 26 27 25 23 24 22 22 26 24 20 18 20 22 25 27 27 30 30 29 27 24 19 21 25 27 20 11 19 17 26 29 26 21
30 30 28 27 28 29 29 30 26 27 24 25 22 15 16 20 19 19 19 21 19 22 23 25 24 25 24 23 23 21 20 16 17 19 22 21 20 19
31 32 32 30 26 25 27 28 26 26 25 22 20 21 24 19 18 18 20 17 12 15 17 15 19 23 26 27 26 24 23 21 18 20 22 22 20 17
32 31 30 35 30 26 23 23 23 24 26 24 20 22 22 20 20 15 12 14 10 11 16 19 16 17 20 22 24 27 25 22 20 20 20 22 23 23
32 30 30 31 32 30 29 27 28 26 26 25 25 21 17 14 15 19 11 9 9 14 13 15 11 15 17 20 24 27 27 25 23 22 22 23 23 23
35 32 32 31 32 35 35 31 29 29 29 31 28 26 25 24 24 19 11 4 1 10 13 13 9 14 16 20 22 23 26 27 25 24 23 23 23 24
30 29 28 31 28 29 32 29 34 34 33 29 31 31 27 26 24 15 11 8 4 8 12 4 5 13 13 15 16 18 23 27 26 24 24 24 23 22
28 28 27 34 35 28 30 28 33 32 30 30 30 31 27 25 16 12 10 12 14 14 17 6 11 4 20 23 24 23 25 31 29 27 26 26 27 27
33 32 32 31 35 32 27 29 31 38 35 32 27 23 19 13 11 9 8 5 10 18 27 20 17 11 11 26 31 30 35 32 27 25 25 23 24 29
38 36 37 43 40 38 33 34 33 30 25 17 12 11 10 10 10 10 11 6 12 14 22 19 17 11 3 14 22 33 36 31 32 31 30 30 29 31
34 34 36 38 36 30 25 24 21 18 17 14 12 11 10 11 12 15 19 23 23 22 22 16 14 16 12 16 19 30 30 35 34 33 32 35 39 39
27 28 28 30 28 27 25 22 15 12 13 13 14 12 15 19 24 27 27 24 22 20 17 17 17 18 19 18 15 30 31 33 34 34 37 39 40 38
24 26 30 28 26 27 27 22 16 13 12 17 18 20 24 32 29 27 26 23 19 20 21 21 20 21 20 18 19 26 34 32 37 44 44 39 37 36
15 19 16 14 11 15 15 10 10 11 16 23 23 23 22 22 23 21 17 17 17 20 21 22 21 20 17 17 18 20 26 26 32 35 37 33 30 30
5 6 14 16 15 18 18 19 18 21 20 22 22 21 22 20 16 15 13 11 11 14 15 16 16 15 13 12 10 20 25 26 31 34 30 28 26 27
4 8 8 5 3 5 8 12 16 20 21 23 23 20 16 13 11 10 10 12 13 14 18 20 17 13 13 23 17 24 31 29 29 30 28 29 26 26
8 7 8 8 8 10 16 17 21 23 18 15 12 10 9 8 8 7 9 12 15 20 21 23 23 19 13 10 15 27 29 24 25 24 25 26 26 30
15 13 11 11 9 15 15 19 18 17 12 11 9 7 6 7 8 11 13 13 14 14 12 16 18 17 14 14 14 19 31 24 25 24 26 26 26 30
20 20 20 20 18 16 14 15 17 15 11 10 9 6 8 8 11 12 13 15 13 8 6 11 17 18 16 14 11 13 19 32 28 24 24 25 26 21
19 20 23 20 19 19 20 19 22 22 19 20 17 15 11 12 14 16 14 10 8 6 6 5 12 11 13 14 16 18 18 21 25 34 33 34 28 23
17 21 21 21 22 22 22 23 23 23 21 19 17 15 15 16 18 17 14 11 5 2 4 6 7 9 12 14 17 17 23 23 24 25 21 37 43 45
Wind_Direction_850mb
273 279 281 285 285 287 301 316 324 317 322 323 342 342 352 356 358 3 360 353 346 340 338 336 334 335 343 358 0 16 6 354 3 5 7 5 2 4
267 269 271 274 273 274 278 284 289 294 299 303 310 315 320 329 321 329 335 334 326 325 327 332 339 346 352 359 7 3 351 348 356 1 9 5 2 359
259 267 266 267 270 270 275 278 284 292 290 297 307 310 314 318 309 313 322 330 329 325 330 330 336 338 337 343 0 3 358 331 347 342 351 351 354 352
260 266 263 263 265 266 268 272 275 283 292 299 301 318 328 322 322 330 338 340 337 335 331 326 325 326 329 330 333 341 350 339 324 306 311 325 331 337
258 268 265 261 265 264 269 269 273 282 292 297 302 316 326 326 333 345 347 352 26 9 2 349 334 327 327 331 334 333 335 329 330 321 314 316 318 312
259 261 261 252 256 265 261 266 268 268 283 288 291 303 313 316 325 341 4 358 8 36 22 359 358 348 345 345 350 355 355 352 347 339 330 321 313 315
256 257 262 259 258 265 276 268 273 274 276 277 283 291 294 299 309 329 350 359 14 28 50 46 40 8 12 14 18 12 7 6 2 355 348 344 340 336
258 260 265 264 262 261 261 273 273 277 289 280 281 291 295 298 312 320 329 0 273 25 65 30 32 351 359 10 18 6 5 4 5 360 356 351 349 345
257 263 269 271 269 269 263 261 275 274 275 278 284 283 288 296 302 306 306 330 347 3 31 9 29 304 303 315 314 328 344 347 342 338 335 333 331 332
249 264 273 269 274 281 261 262 273 273 275 277 279 282 288 290 284 275 279 297 306 326 336 338 322 307 296 289 295 312 322 331 327 326 321 315 315 316
268 273 269 276 275 269 267 266 271 275 278 278 279 284 286 277 266 253 261 284 292 299 318 315 310 303 260 286 299 310 323 324 325 326 325 323 320 315
270 268 264 261 263 259 258 264 263 268 272 271 271 269 266 267 267 263 272 292 301 303 310 322 316 334 280 282 298 306 319 326 329 330 329 326 323 321
263 264 260 257 254 251 241 237 244 252 251 246 239 242 249 264 276 289 299 305 307 299 307 318 317 324 310 288 298 311 316 322 325 326 328 330 330 326
247 247 241 241 235 225 215 204 199 217 228 233 244 262 283 292 297 302 305 306 305 303 307 315 315 315 312 312 312 307 321 323 327 330 333 332 331 329
247 247 243 227 230 232 219 196 172 199 233 254 264 279 286 299 300 306 310 310 304 311 317 318 318 317 315 309 314 318 327 332 332 334 338 339 338 340
249 254 243 213 204 205 159 154 215 230 256 264 272 277 287 289 296 298 298 304 303 309 309 312 317 319 315 304 306 315 325 331 321 322 327 332 334 339
293 260 214 216 209 209 222 221 241 242 244 258 271 283 286 287 287 289 294 296 292 299 306 313 319 318 309 307 325 330 333 335 330 332 337 341 345 341
207 195 175 179 250 243 231 235 238 252 261 267 270 275 277 277 275 284 302 314 314 319 325 332 345 348 333 323 311 326 331 338 340 346 350 346 342 345
204 201 233 240 227 242 254 255 265 267 259 257 255 247 249 265 288 297 316 324 328 334 331 328 333 341 359 337 324 339 355 350 348 342 345 342 342 338
234 224 228 237 232 259 268 282 279 271 271 266 254 254 255 276 298 317 321 319 324 330 338 337 340 342 347 336 344 343 339 358 358 350 349 355 347 357
228 222 218 221 226 234 251 275 271 263 251 234 242 256 278 293 300 300 304 307 316 329 350 340 340 354 7 4 350 340 341 336 352 3 352 351 351 350
221 217 216 218 233 244 252 240 237 229 222 228 225 224 237 276 289 290 292 295 293 291 323 347 358 16 14 1 349 343 343 346 355 350 352 357 351 329
213 216 225 240 250 257 252 238 225 221 221 231 251 260 263 263 266 270 277 278 265 310 14 6 23 48 16 359 353 348 355 359 349 344 342 332 338 347